Location: Unspecified
(53.3446°N, 0.0000°E)
Time: 03:27:02
(UTC+00:00)

Cosmos 1140 - Visible Passes

Search period start: 04 April 2026 00:00
Search period end: 14 April 2026 00:00
Orbit: 755 x 778 km, 74.1° (Epoch: 29 March)

Date Brightness Start Highest point End Pass type
(mag) Time Alt. Az. Time Alt. Az. Time Alt. Az.
4 Apr 7.0 01:19:08 38° E 01:19:08 38° E 01:23:40 10° NE visible
4 Apr 6.6 02:59:21 35° W 03:00:49 43° NW 03:05:52 10° NNE visible
4 Apr 8.1 04:41:47 10° WNW 04:44:21 13° NNW 04:46:55 10° N visible
5 Apr 7.6 00:42:12 24° E 00:42:12 24° E 00:45:44 10° NE visible
5 Apr 6.0 02:22:25 57° W 02:23:07 63° WNW 02:28:22 10° NNE visible
5 Apr 7.9 04:02:47 10° WNW 04:06:15 17° NW 04:09:45 10° N visible
6 Apr 8.2 00:05:14 15° E 00:05:14 15° E 00:07:25 10° ENE visible
6 Apr 5.9 01:45:27 86° SE 01:45:30 87° ESE 01:50:49 10° NNE visible
6 Apr 7.6 03:25:40 16° W 03:28:15 23° NW 03:32:27 10° N visible
7 Apr 6.4 01:08:28 55° E 01:08:28 55° E 01:13:10 10° NNE visible
7 Apr 7.1 02:48:40 26° W 02:50:21 31° NW 02:55:04 10° NNE visible
7 Apr 8.3 04:32:46 10° NW 04:34:12 11° NNW 04:35:39 10° N visible
8 Apr 7.1 00:31:27 34° E 00:31:27 34° E 00:35:24 10° NE visible
8 Apr 6.6 02:11:40 41° W 02:12:33 45° NW 02:17:38 10° NNE visible
8 Apr 8.2 03:53:20 10° WNW 03:56:02 14° NNW 03:58:45 10° N visible
8 Apr 7.7 23:54:25 22° E 23:54:25 22° E 23:57:26 10° NE visible
9 Apr 6.0 01:34:38 66° WNW 01:34:51 67° WNW 01:40:09 10° NNE visible
9 Apr 8.0 03:14:51 12° WNW 03:17:57 18° NW 03:21:34 10° N visible
9 Apr 8.2 23:17:22 14° ENE 23:17:22 14° ENE 23:19:02 10° ENE visible
10 Apr 6.0 00:57:35 77° ENE 00:57:35 77° ENE 01:02:35 10° NNE visible
10 Apr 7.6 02:37:47 19° WNW 02:39:58 24° NW 02:44:15 10° N visible
11 Apr 6.6 00:20:30 49° ENE 00:20:30 49° ENE 00:24:55 10° NNE visible
11 Apr 7.1 02:00:43 29° W 02:02:04 33° NW 02:06:51 10° NNE visible
11 Apr 8.4 03:44:12 10° NW 03:45:52 11° NNW 03:47:33 10° N visible
11 Apr 7.2 23:43:25 32° E 23:43:25 32° E 23:47:07 10° NE visible
12 Apr 6.5 01:23:37 45° WNW 01:24:17 47° NW 01:29:25 10° NNE visible
12 Apr 8.3 03:04:51 10° WNW 03:07:43 14° NNW 03:10:34 10° N visible
12 Apr 7.7 23:06:17 21° ENE 23:06:17 21° ENE 23:09:06 10° NE visible
13 Apr 6.0 00:46:30 70° WNW 00:46:35 70° WNW 00:51:54 10° NNE visible
13 Apr 8.0 02:26:42 13° WNW 02:29:38 19° NW 02:33:21 10° N visible
13 Apr 8.1 22:29:09 13° ENE 22:29:09 13° ENE 22:30:37 10° ENE visible
